Location: ??????
(56.0120°N, 39.1740°E)
Time: 22:50:38
(UTC+00:00)

NOSS 2-1 (D) - Pass Details

Date: 14 April 2026
Orbit: 373 x 1667 km, 63.3° (Epoch: 13 May)

Event Time Altitude Azimuth Distance (km) Brightness Sun altitude
Rises 17:14:32 0° 307° (NW) 2,247 8.8 -6.8°
Reaches altitude 10° 17:16:29 10° 314° (NW) 1,420 7.0 -7.0°
Maximum altitude 17:19:25 46° 30° (NNE) 579 3.5 -7.4°
Drops below altitude 10° 17:22:53 10° 105° (ESE) 1,674 5.2 -7.8°
Enters shadow 17:22:58 10° 105° (ESE) 1,708 5.2 -7.8°
